[[{"header":{"parameterUnit":"m.s-1","parameterCategory":1,"la1":30.2991,"la2":30.254,"lo1":-89.0895,"lo2":-89.0444,"dy":0.0017,"dx":0.0017,"nx":28,"ny":28,"refTime":"2025-03-06T09:00:00:Z","depth":0,"parameterNumber":2,"parameterNumberName":"U-component_of_WINDS"},"data":[0,0,0,0,0,0,0,0,0,0,0,0,0,0,0,0,0,0,0,0,0,0,0,0,0,0,0,0,0,0,0,0,0,0,0,0,0,0,0,0,0,0,0,0,0,0,0,0,0,0,0,0,0,0,0,0,0,0,-1.2634,-1.2635,0,-1.2722,-1.2723,-1.2724,-1.2772,-1.2773,-1.2773,-1.2773,-1.2865,-1.2867,-1.287,0,0,0,0,0,0,0,0,0,0,0,0,0,-1.2509,-1.2511,-1.2634,-1.2635,-1.2636,-1.2722,-1.2723,-1.2725,-1.2772,-1.2773,-1.2773,-1.2773,-1.2864,-1.2867,-1.287,0,0,0,0,0,0,0,0,0,0,0,0,0,-1.2577,-1.2511,-1.2634,-1.267,-1.2674,-1.2722,-1.2723,-1.2725,-1.2772,-1.2773,-1.2773,-1.2773,-1.2863,-1.2867,-1.287,-1.2889,0,0,-1.2881,-1.2883,0,0,0,0,0,0,0,0,-1.2573,-1.2581,-1.2664,-1.2668,-1.2672,-1.2736,-1.2713,-1.278,-1.2772,-1.2735,-1.2773,-1.2773,-1.2822,-1.2829,-1.2846,-1.2893,-1.2897,-1.2882,-1.2884,-1.2885,-1.2886,0,0,0,0,0,0,0,-1.2568,-1.2578,-1.2669,-1.2665,-1.267,-1.2683,-1.2693,-1.2726,-1.2777,-1.2738,-1.2742,-1.2752,-1.2825,-1.2842,-1.2848,-1.2899,-1.2881,-1.2885,-1.2887,-1.2888,-1.2967,-1.2967,0,0,0,0,0,0,-1.2557,-1.2573,-1.2666,-1.2672,-1.2622,-1.2685,-1.2696,-1.2716,-1.2777,-1.2786,-1.2752,-1.2754,-1.2836,-1.2844,-1.2852,-1.2878,-1.2885,-1.2889,-1.2891,-1.2967,-1.2967,-1.2967,0,0,0,0,0,0,-1.2554,-1.2565,-1.2662,-1.2624,-1.2637,-1.2687,-1.2709,-1.2717,-1.2735,-1.2786,-1.2796,-1.276,-1.2836,-1.2847,-1.2879,-1.2882,-1.289,-1.2893,-1.2967,-1.2967,-1.2967,-1.293,0,0,0,0,0,0,-1.255,-1.2564,-1.257,-1.2623,-1.2639,-1.2688,-1.2709,-1.2719,-1.274,-1.2744,-1.2797,-1.2806,-1.2837,-1.2874,-1.2883,-1.2887,-1.2896,-1.2967,-1.2967,-1.2967,-1.2931,-1.2928,-1.2926,0,0,0,0,0,-1.2546,-1.2557,-1.2571,-1.2581,-1.2648,-1.2688,-1.2697,-1.2733,-1.274,-1.2748,-1.2782,-1.2804,-1.288,-1.2877,-1.2887,-1.2892,-1.2967,-1.2967,-1.2967,-1.2932,-1.2929,-1.2926,0,0,0,0,0,0,-1.2503,-1.2564,-1.258,-1.2608,-1.2643,-1.2696,-1.2707,-1.2728,-1.2761,-1.2763,-1.2807,-1.2818,-1.2847,-1.2873,-1.2869,-1.2914,-1.2926,-1.2928,-1.2896,-1.2893,-1.2891,-1.2884,-1.2899,0,0,0,0,0,-1.2497,-1.2523,-1.2576,-1.2596,-1.2612,-1.2656,-1.2675,-1.2699,-1.2737,-1.2752,-1.2787,-1.2823,-1.2856,-1.2876,-1.2908,-1.2935,-1.2948,-1.2944,-1.2941,-1.2939,-1.294,-1.2957,-1.2956,-1.2967,-1.2967,-1.2967,0,0,-1.2485,-1.2521,-1.2535,-1.2588,-1.2617,-1.2644,-1.2668,-1.2696,-1.2716,-1.2756,-1.2789,-1.2817,-1.286,-1.289,-1.2905,-1.2912,-1.294,-1.2939,-1.2937,-1.2939,-1.2957,-1.2956,-1.2955,-1.2967,-1.2967,-1.2967,0,0,-1.2476,-1.2506,-1.2526,-1.2555,-1.2599,-1.2629,-1.2633,-1.2684,-1.2704,-1.2737,-1.2768,-1.2794,-1.2848,-1.2878,-1.29,-1.2903,-1.2925,-1.2912,-1.29,-1.2916,-1.2915,-1.2915,-1.2916,-1.2916,-1.2914,-1.2913,-1.2913,0,-1.2456,-1.2497,-1.2534,-1.256,-1.2582,-1.2619,-1.264,-1.2667,-1.2719,-1.2734,-1.2742,-1.2811,-1.2843,-1.2881,-1.2881,-1.2898,-1.2906,-1.2907,-1.2912,-1.2912,-1.2912,-1.2914,-1.2914,-1.2912,-1.2912,-1.2912,-1.2912,0,-1.2469,-1.2498,-1.2509,-1.2558,-1.2582,-1.2605,-1.2647,-1.2667,-1.2689,-1.2718,-1.2753,-1.2792,-1.2833,-1.2844,-1.2867,-1.2885,-1.2889,-1.2903,-1.2917,-1.2909,-1.2911,-1.2912,-1.2909,-1.291,-1.291,-1.2911,0,0,-1.2436,-1.2506,-1.2509,-1.2532,-1.2584,-1.2607,-1.2632,-1.2672,-1.2688,-1.2724,-1.2747,-1.2792,-1.2806,-1.2831,-1.2858,-1.2872,-1.2872,-1.2885,-1.2887,-1.2882,-1.2896,-1.2885,-1.2885,-1.2887,-1.2888,-1.2888,-1.2893,0,-1.2435,-1.2482,-1.2516,-1.255,-1.2577,-1.2612,-1.2635,-1.2669,-1.2697,-1.2725,-1.2757,-1.2788,-1.2804,-1.282,-1.2835,-1.2869,-1.2876,-1.2869,-1.291,-1.2911,-1.2898,-1.2886,-1.2874,-1.2877,-1.2894,-1.2894,-1.2894,0,-1.244,-1.2473,-1.2509,-1.2558,-1.2571,-1.259,-1.263,-1.2656,-1.2696,-1.2716,-1.2744,-1.2771,-1.28,-1.2811,-1.2852,-1.2847,-1.2866,-1.2885,-1.2886,-1.2892,-1.2902,-1.2891,-1.2878,-1.2879,-1.2896,-1.2896,-1.2896,0,-1.2412,-1.2467,-1.2495,-1.2514,-1.2572,-1.2584,-1.2609,-1.265,-1.2672,-1.2707,-1.2722,-1.276,-1.278,-1.281,-1.2847,-1.2851,-1.2885,-1.2899,-1.2903,-1.2902,-1.2908,-1.2908,-1.2898,-1.292,-1.292,-1.292,-1.292,0,-1.2408,-1.2428,-1.2484,-1.2501,-1.2526,-1.2566,-1.259,-1.2618,-1.2653,-1.2678,-1.2711,-1.2734,-1.2782,-1.281,-1.284,-1.287,-1.2879,-1.2896,-1.2904,-1.2893,-1.2891,-1.2906,-1.2907,-1.292,-1.292,-1.292,-1.292,0,-1.2381,-1.2419,-1.2452,-1.2504,-1.2518,-1.2534,-1.2579,-1.2598,-1.2628,-1.2658,-1.2668,-1.2715,-1.2751,-1.2791,-1.284,-1.286,-1.2888,-1.2899,-1.2874,-1.2878,-1.2881,-1.288,-1.2881,-1.2884,-1.2903,-1.2903,-1.2903,0,-1.2375,-1.2392,-1.2446,-1.2464,-1.2488,-1.2517,-1.254,-1.258,-1.2602,-1.265,-1.2663,-1.2701,-1.2733,-1.2789,-1.2828,-1.2866,-1.2878,-1.2876,-1.2884,-1.2873,-1.2878,-1.2877,-1.2879,-1.2873,-1.2873,-1.2873,-1.2872,0,-1.2362,-1.238,-1.241,-1.2447,-1.2473,-1.2505,-1.2538,-1.2551,-1.2598,-1.2622,-1.2658,-1.2683,-1.2733,-1.277,-1.2813,-1.284,-1.2864,-1.2869,-1.2873,-1.2862,-1.2847,-1.2855,-1.2868,-1.2869,-1.287,-1.287,-1.287,-1.287,-1.2346,-1.2362,-1.2403,-1.2436,-1.2465,-1.2495,-1.2515,-1.2548,-1.2579,-1.2622,-1.2644,-1.268,-1.2721,-1.2781,-1.2807,-1.2837,-1.2845,-1.2849,-1.285,-1.2851,-1.2848,-1.2842,-1.2845,-1.2845,-1.2845,-1.2845,-1.2845,0,-1.2334,-1.2362,-1.2392,-1.2436,-1.2463,-1.2483,-1.2521,-1.2542,-1.2573,-1.2608,-1.2639,-1.2681,-1.2718,-1.276,-1.28,-1.2816,-1.2828,-1.2825,-1.2824,-1.283,-1.2838,-1.2832,-1.2814,-1.2814,-1.2814,-1.2814,-1.2814,-1.2814,-1.2331,-1.236,-1.2383,-1.2427,-1.2456,-1.249,-1.251,-1.2539,-1.2567,-1.2613,-1.2643,-1.267,-1.2709,-1.2752,-1.2786,-1.2798,-1.2811,-1.2805,-1.282,-1.2827,-1.2829,-1.2832,-1.2826,-1.2807,-1.2807,-1.2809,-1.2809,-1.2809]},{"header":{"parameterUnit":"m.s-1","parameterCategory":1,"la1":30.2991,"la2":30.254,"lo1":-89.0895,"lo2":-89.0444,"dy":0.0017,"dx":0.0017,"nx":28,"ny":28,"refTime":"2025-03-06T09:00:00:Z","depth":0,"parameterNumber":3,"parameterNumberName":"V-component_of_WINDS"},"data":[0,0,0,0,0,0,0,0,0,0,0,0,0,0,0,0,0,0,0,0,0,0,0,0,0,0,0,0,0,0,0,0,0,0,0,0,0,0,0,0,0,0,0,0,0,0,0,0,0,0,0,0,0,0,0,0,0,0,4.6527,4.6528,0,4.6615,4.6616,4.6617,4.6627,4.6626,4.6625,4.6624,4.6709,4.6712,4.6715,0,0,0,0,0,0,0,0,0,0,0,0,0,4.6363,4.6366,4.6527,4.6528,4.6529,4.6615,4.6616,4.6617,4.6627,4.6626,4.6625,4.6624,4.6708,4.6712,4.6715,0,0,0,0,0,0,0,0,0,0,0,0,0,4.6441,4.6367,4.6527,4.6544,4.6547,4.6615,4.6616,4.6618,4.6627,4.6626,4.6624,4.6623,4.6707,4.6711,4.6716,4.6771,0,0,4.673,4.6732,0,0,0,0,0,0,0,0,4.6436,4.6447,4.6541,4.6543,4.6546,4.6609,4.659,4.6669,4.6627,4.6596,4.6624,4.6622,4.6676,4.6683,4.6703,4.6775,4.6778,4.673,4.6733,4.6735,4.6736,0,0,0,0,0,0,0,4.6431,4.6443,4.6562,4.6542,4.6545,4.6547,4.6556,4.6605,4.6642,4.6599,4.66,4.661,4.6678,4.6698,4.6705,4.678,4.673,4.6734,4.6737,4.6739,4.6903,4.6904,0,0,0,0,0,0,4.6423,4.6439,4.6559,4.6564,4.6487,4.6551,4.6561,4.659,4.6642,4.6649,4.6612,4.6611,4.6691,4.6699,4.6708,4.6777,4.6735,4.6739,4.6742,4.6901,4.6903,4.6905,0,0,0,0,0,0,4.6419,4.6434,4.6555,4.6502,4.6517,4.6555,4.6587,4.6592,4.6613,4.6652,4.6658,4.6626,4.669,4.6701,4.6756,4.678,4.6742,4.6746,4.69,4.6902,4.6904,4.6915,0,0,0,0,0,0,4.6415,4.6432,4.6454,4.6502,4.652,4.6603,4.6588,4.6595,4.6622,4.6621,4.6667,4.6673,4.669,4.6749,4.676,4.6786,4.6749,4.6898,4.6901,4.6903,4.6912,4.6917,4.6921,0,0,0,0,0,4.6409,4.6452,4.6455,4.647,4.6549,4.6604,4.6615,4.6635,4.6623,4.6646,4.6671,4.6672,4.6775,4.6754,4.6767,4.6794,4.6896,4.69,4.6903,4.691,4.6916,4.6921,0,0,0,0,0,0,4.6404,4.6459,4.6463,4.6523,4.656,4.6606,4.6634,4.664,4.6679,4.6676,4.6698,4.6708,4.6763,4.6784,4.6759,4.6851,4.6834,4.6841,4.6835,4.6841,4.6846,4.6839,4.6753,0,0,0,0,0,4.641,4.6452,4.6497,4.6546,4.6564,4.6596,4.6621,4.6634,4.6671,4.6686,4.6715,4.675,4.6791,4.6817,4.6857,4.6915,4.6926,4.694,4.6945,4.6948,4.6953,4.6988,4.6995,4.6917,4.6917,4.6917,0,0,4.6422,4.6458,4.6483,4.6546,4.6576,4.6618,4.6609,4.6653,4.6685,4.6692,4.6747,4.6769,4.681,4.6867,4.6894,4.6887,4.6978,4.6953,4.6955,4.6959,4.6992,4.6999,4.7006,4.6919,4.6919,4.6918,0,0,4.6468,4.6498,4.6544,4.6574,4.662,4.6641,4.6652,4.6698,4.6714,4.677,4.6777,4.6813,4.6883,4.6912,4.6936,4.6994,4.6997,4.7006,4.7029,4.7062,4.7069,4.7074,4.7096,4.7103,4.7011,4.7011,4.7011,0,4.6477,4.6543,4.6565,4.6611,4.6639,4.665,4.6696,4.6723,4.6779,4.6797,4.6789,4.6878,4.6905,4.6971,4.6985,4.7004,4.7017,4.7001,4.7066,4.7072,4.7077,4.7099,4.7107,4.7012,4.7012,4.7012,4.7012,0,4.6553,4.6598,4.6628,4.6685,4.6716,4.6761,4.679,4.6818,4.6829,4.6851,4.6907,4.6942,4.6989,4.7005,4.7015,4.7072,4.7067,4.7062,4.7046,4.7086,4.7106,4.7114,4.7014,4.7013,4.7013,4.7013,0,0,4.6596,4.6666,4.6677,4.6703,4.6755,4.679,4.6836,4.6884,4.6909,4.6947,4.6986,4.7045,4.7042,4.7069,4.7082,4.7111,4.7156,4.7103,4.7104,4.7112,4.7223,4.7227,4.7236,4.7159,4.716,4.7161,4.722,0,4.6648,4.6732,4.6754,4.6825,4.6867,4.6879,4.6919,4.6955,4.6977,4.7015,4.7039,4.7081,4.7073,4.709,4.7119,4.7145,4.7179,4.7141,4.7195,4.7196,4.7185,4.7247,4.7251,4.7305,4.7228,4.723,4.7231,0,4.6719,4.6761,4.6837,4.6886,4.6904,4.694,4.6987,4.7024,4.7065,4.7079,4.711,4.7121,4.7169,4.715,4.7216,4.7189,4.7213,4.7229,4.7231,4.7238,4.7216,4.7255,4.7322,4.7331,4.7243,4.7242,4.7241,0,4.6745,4.682,4.6876,4.6898,4.6955,4.698,4.7005,4.7045,4.7073,4.7114,4.7133,4.7177,4.7202,4.7236,4.7259,4.7243,4.7323,4.7306,4.7336,4.7336,4.7353,4.7351,4.7425,4.7366,4.7366,4.7366,4.7366,0,4.68,4.6846,4.6889,4.6923,4.6975,4.7,4.705,4.7075,4.7111,4.715,4.7162,4.7197,4.7225,4.7264,4.7282,4.7334,4.7345,4.7357,4.7362,4.7357,4.7355,4.7373,4.737,4.7368,4.7368,4.7367,4.7367,0,4.6838,4.6868,4.693,4.698,4.6994,4.703,4.7072,4.7106,4.7129,4.7178,4.7191,4.7226,4.7273,4.73,4.7358,4.737,4.7429,4.743,4.7416,4.7418,4.7447,4.7444,4.7535,4.7548,4.748,4.748,4.7481,0,4.6872,4.6908,4.6963,4.6991,4.7017,4.7062,4.7092,4.7118,4.7148,4.7198,4.7226,4.7274,4.7314,4.7389,4.7419,4.7464,4.7468,4.7497,4.7474,4.7469,4.747,4.7468,4.7472,4.75,4.7501,4.7502,4.7502,0,4.693,4.6944,4.6987,4.7036,4.7072,4.7112,4.7151,4.7172,4.7205,4.7238,4.7288,4.7319,4.738,4.7428,4.7476,4.75,4.7507,4.7509,4.7518,4.7514,4.7505,4.7512,4.7427,4.7507,4.7506,4.7506,4.7506,4.7505,4.6968,4.7001,4.7046,4.7094,4.7127,4.7164,4.7198,4.7227,4.7269,4.7322,4.7335,4.7387,4.7428,4.7494,4.7519,4.756,4.7555,4.7568,4.7572,4.7575,4.7577,4.7498,4.7569,4.7569,4.7569,4.7568,4.7568,0,4.7027,4.7057,4.7102,4.7157,4.7195,4.72,4.7244,4.7275,4.7322,4.736,4.74,4.7458,4.7505,4.754,4.7588,4.7614,4.7618,4.7626,4.7624,4.763,4.7578,4.7566,4.7622,4.7622,4.7622,4.7622,4.7622,4.7622,4.7063,4.712,4.7139,4.7213,4.7242,4.7296,4.7321,4.7354,4.7386,4.745,4.749,4.7513,4.755,4.7601,4.7645,4.7654,4.7671,4.7679,4.7688,4.7639,4.7633,4.7628,4.7617,4.7682,4.7682,4.7737,4.7737,4.7738]}]]